Melfa, VA

2:26 PM EDT on June 25, 2017 (GMT -0400)
Accomack County

Weather History for KMFV - November, 2012

Change the Weather History Date:

Friday, November 30, 2012

  Actual Average (KWAL) Record (KWAL)
Temperature  
Mean Temperature 46 °F -  
Max Temperature 59 °F 52 °F 74 °F (1991)
Min Temperature 33 °F 35 °F 20 °F (1989)
Degree Days  
Heating Degree Days 19    
Moisture  
Dew Point 37 °F    
Average Humidity 74    
Maximum Humidity 93    
Minimum Humidity 39    
Precipitation  
Precipitation 0.00 in - - ()
Sea Level Pressure  
Sea Level Pressure 30.36 in    
Wind  
Wind Speed 5 mph (South)    
Max Wind Speed 12 mph    
Max Gust Speed 16 mph    
Visibility 9 miles    
Events      
Averages and records for this station are not official NWS values.
T = Trace of Precipitation, MM = Missing Value Source: NWS Daily Summary

Daily Weather History Graph

Daily Weather History Graph

Search for Another Location

Airport or City:

Trip Planner

Search our weather history database for the weather conditions in past years. The results will help you decide how hot, cold, wet, or windy it might be!

Date:

Astronomy

Nov. 30, 2012 Rise Set
Actual Time 6:58 AM EST 4:44 PM EST
Civil Twilight 6:29 AM EST 5:13 PM EST
Nautical Twilight 5:57 AM EST 5:46 PM EST
Astronomical Twilight 5:25 AM EST 6:17 PM EST
Moon 6:37 PM EST (11/30) 8:29 AM EST (11/30)
Length of Visible Light 10h 43m
Length of Day
9h 46m
Waning Gibbous, 96% of the Moon is Illuminated
Nov 30
Waning Gibbous
Dec 6
Last Quarter
Dec 13
New
Dec 20
First Quarter
Dec 28
Full

Hourly Weather History & Observations

Time (EST) Temp. Windchill Dew Point Humidity Pressure Visibility Wind Dir Wind Speed Gust Speed Precip Events Conditions
12:15 AM 39.2 °F 35.9 °F 33.8 °F 81% 30.39 in 10.0 mi South 4.6 mph - N/A   Clear
12:35 AM 37.4 °F 34.9 °F 33.8 °F 87% 30.38 in 10.0 mi South 3.5 mph - N/A   Clear
12:55 AM 35.6 °F 31.7 °F 32.0 °F 87% 30.37 in 10.0 mi South 4.6 mph - N/A   Clear
1:15 AM 37.4 °F 32.8 °F 33.8 °F 87% 30.38 in 10.0 mi South 5.8 mph - N/A   Clear
1:35 AM 39.2 °F 35.0 °F 35.6 °F 87% 30.37 in 10.0 mi SSW 5.8 mph - N/A   Clear
1:55 AM 37.4 °F 33.8 °F 33.8 °F 87% 30.38 in 10.0 mi SSW 4.6 mph - N/A   Clear
2:15 AM 37.4 °F 32.8 °F 33.8 °F 87% 30.38 in 10.0 mi SSW 5.8 mph - N/A   Clear
2:35 AM 39.2 °F 35.0 °F 33.8 °F 81% 30.37 in 10.0 mi SSW 5.8 mph - N/A   Clear
2:55 AM 39.2 °F 35.9 °F 33.8 °F 81% 30.37 in 10.0 mi SSW 4.6 mph - N/A   Clear
3:15 AM 39.2 °F 35.9 °F 33.8 °F 81% 30.37 in 10.0 mi SSW 4.6 mph - N/A   Clear
3:35 AM 37.4 °F 33.8 °F 33.8 °F 87% 30.37 in 10.0 mi SSW 4.6 mph - N/A   Clear
3:55 AM 37.4 °F 33.8 °F 33.8 °F 87% 30.37 in 10.0 mi SSW 4.6 mph - N/A   Clear
4:15 AM 35.6 °F 32.8 °F 33.8 °F 93% 30.36 in 7.0 mi SSW 3.5 mph - N/A   Clear
4:35 AM 33.8 °F 30.8 °F 32.0 °F 93% 30.36 in 7.0 mi SSW 3.5 mph - N/A   Clear
4:55 AM 33.8 °F 29.6 °F 32.0 °F 93% 30.37 in 7.0 mi SSW 4.6 mph - N/A   Clear
5:17 AM 33.8 °F 30.8 °F 32.0 °F 93% 30.37 in 4.0 mi SSW 3.5 mph - N/A   Clear
5:35 AM 33.8 °F 30.8 °F 30.2 °F 87% 30.37 in 3.0 mi South 3.5 mph - N/A   Clear
5:58 AM 33.8 °F 29.6 °F 32.0 °F 93% 30.37 in 4.0 mi South 4.6 mph - N/A   Clear
6:15 AM 33.8 °F 29.6 °F 32.0 °F 93% 30.37 in 7.0 mi South 4.6 mph - N/A   Clear
6:35 AM 33.8 °F 28.6 °F 30.2 °F 87% 30.37 in 5.0 mi South 5.8 mph - N/A   Clear
6:56 AM 33.8 °F 29.6 °F 32.0 °F 93% 30.38 in 7.0 mi South 4.6 mph - N/A   Clear
7:16 AM 33.8 °F 28.6 °F 32.0 °F 93% 30.38 in 7.0 mi South 5.8 mph - N/A   Clear
7:35 AM 37.4 °F 32.8 °F 35.6 °F 93% 30.38 in 7.0 mi South 5.8 mph - N/A   Clear
7:55 AM 37.4 °F 33.8 °F 33.8 °F 87% 30.38 in 7.0 mi South 4.6 mph - N/A   Clear
8:15 AM 39.2 °F 34.2 °F 35.6 °F 87% 30.39 in 7.0 mi South 6.9 mph - N/A   Clear
8:35 AM 42.8 °F 40.1 °F 37.4 °F 81% 30.39 in 10.0 mi South 4.6 mph - N/A   Clear
8:55 AM 44.6 °F 40.7 °F 37.4 °F 76% 30.40 in 10.0 mi South 6.9 mph - N/A   Clear
9:15 AM 46.4 °F 42.4 °F 37.4 °F 71% 30.40 in 10.0 mi South 8.1 mph - N/A   Clear
9:35 AM 48.2 °F - 39.2 °F 71% 30.39 in 10.0 mi SSW 3.5 mph - N/A   Clear
9:55 AM 48.2 °F - 39.2 °F 71% 30.39 in 10.0 mi South 4.6 mph - N/A   Clear
10:15 AM 51.8 °F - 37.4 °F 58% 30.39 in 10.0 mi SSW 6.9 mph - N/A   Clear
10:35 AM 53.6 °F - 37.4 °F 54% 30.39 in 10.0 mi SW 8.1 mph - N/A   Clear
10:55 AM 53.6 °F - 37.4 °F 54% 30.38 in 10.0 mi SSW 8.1 mph - N/A   Clear
11:15 AM 55.4 °F - 37.4 °F 51% 30.37 in 10.0 mi SW 10.4 mph - N/A   Clear
11:35 AM 55.4 °F - 35.6 °F 47% 30.36 in 10.0 mi SW 11.5 mph - N/A   Clear
11:56 AM 57.2 °F - 35.6 °F 44% 30.36 in 10.0 mi SW 10.4 mph - N/A   Clear
12:15 PM 57.2 °F - 33.8 °F 41% 30.34 in 10.0 mi SW 9.2 mph 16.1 mph N/A   Clear
12:35 PM 57.2 °F - 33.8 °F 41% 30.34 in 10.0 mi SW 9.2 mph - N/A   Clear
12:56 PM 57.2 °F - 33.8 °F 41% 30.33 in 10.0 mi SSW 9.2 mph - N/A   Clear
1:15 PM 57.2 °F - 33.8 °F 41% 30.32 in 10.0 mi SW 6.9 mph - N/A   Clear
1:35 PM 59.0 °F - 33.8 °F 39% 30.31 in 10.0 mi WSW 5.8 mph - N/A   Clear
1:55 PM 59.0 °F - 33.8 °F 39% 30.31 in 10.0 mi SW 6.9 mph - N/A   Clear
2:15 PM 57.2 °F - 35.6 °F 44% 30.31 in 10.0 mi South 5.8 mph - N/A   Clear
2:35 PM 57.2 °F - 37.4 °F 48% 30.31 in 10.0 mi South 5.8 mph - N/A   Clear
2:55 PM 57.2 °F - 37.4 °F 48% 30.31 in 10.0 mi South 6.9 mph - N/A   Clear
3:15 PM 55.4 °F - 37.4 °F 51% 30.31 in 10.0 mi SSW 5.8 mph - N/A   Clear
3:36 PM 55.4 °F - 37.4 °F 51% 30.31 in 10.0 mi South 5.8 mph - N/A   Clear
3:57 PM 55.4 °F - 39.2 °F 54% 30.32 in 10.0 mi SSE 5.8 mph - N/A   Clear
4:15 PM 53.6 °F - 41.0 °F 62% 30.32 in 10.0 mi South 3.5 mph - N/A   Clear
4:35 PM 51.8 °F - 41.0 °F 67% 30.32 in 10.0 mi SSE 4.6 mph - N/A   Clear
5:15 PM 48.2 °F - 41.0 °F 76% 30.33 in 10.0 mi SSE 3.5 mph - N/A   Clear
5:35 PM 48.2 °F - 42.8 °F 82% 30.33 in 10.0 mi SSE 4.6 mph - N/A   Clear
5:56 PM 48.2 °F - 42.8 °F 82% 30.33 in 10.0 mi SSE 4.6 mph - N/A   Clear
6:15 PM 48.2 °F - 42.8 °F 82% 30.33 in 10.0 mi SSE 5.8 mph - N/A   Clear
6:35 PM 48.2 °F - 42.8 °F 82% 30.33 in 10.0 mi Calm Calm - N/A   Clear
6:56 PM 46.4 °F - 41.0 °F 81% 30.34 in 10.0 mi Calm Calm - N/A   Clear
7:15 PM 44.6 °F 41.4 °F 42.8 °F 93% 30.34 in 10.0 mi SSE 5.8 mph - N/A   Clear
7:35 PM 48.2 °F - 42.8 °F 82% 30.34 in 10.0 mi South 4.6 mph - N/A   Clear
8:15 PM 48.2 °F - 42.8 °F 82% 30.35 in 10.0 mi South 5.8 mph - N/A   Clear
8:35 PM 48.2 °F - 42.8 °F 82% 30.35 in 10.0 mi SSE 4.6 mph - N/A   Clear
8:56 PM 48.2 °F - 42.8 °F 82% 30.35 in 10.0 mi South 5.8 mph - N/A   Clear
9:15 PM 48.2 °F - 42.8 °F 82% 30.35 in 10.0 mi South 4.6 mph - N/A   Clear
9:35 PM 48.2 °F - 42.8 °F 82% 30.35 in 10.0 mi South 6.9 mph - N/A   Clear
10:15 PM 48.2 °F - 42.8 °F 82% 30.35 in 10.0 mi South 4.6 mph - N/A   Clear
10:35 PM 48.2 °F - 42.8 °F 82% 30.35 in 10.0 mi South 4.6 mph - N/A   Clear
11:15 PM 42.8 °F 40.1 °F 39.2 °F 87% 30.35 in 7.0 mi South 4.6 mph - N/A   Clear
11:35 PM 44.6 °F 41.4 °F 41.0 °F 87% 30.35 in 10.0 mi South 5.8 mph - N/A   Clear